Ely, NV

10:25 AM PDT on May 28, 2017 (GMT -0700)
Ely

Weather History for KELY - November, 2013

Change the Weather History Date:

Saturday, November 2, 2013

  Actual Average Record
Temperature  
Mean Temperature 43 °F 39 °F  
Max Temperature 65 °F 55 °F 71 °F (1999)
Min Temperature 20 °F 24 °F 2 °F (2002)
Degree Days  
Heating Degree Days 22 26  
Month to date heating degree days 47 51  
Since 1 July heating degree days 948 979  
Cooling Degree Days 0 0  
Month to date cooling degree days 0 0  
Year to date cooling degree days 387 218  
Moisture  
Dew Point 18 °F    
Average Humidity 51    
Maximum Humidity 91    
Minimum Humidity 10    
Precipitation  
Precipitation 0.00 in 0.03 in 0.62 in (2008)
Month to date precipitation 0.00 0.06  
Year to date precipitation 6.68 8.53  
Snow  
Snow 0.00 in 0.20 in 5.30 in (1957)
Month to date snowfall 0.0 0.3  
Since 1 July snowfall 3.0 3.7  
Since 1 September snowfall 3.0 3.7  
Snow Depth 0.00 in    
Sea Level Pressure  
Sea Level Pressure 29.96 in    
Wind  
Wind Speed 10 mph (South)    
Max Wind Speed 21 mph    
Max Gust Speed 26 mph    
Visibility 10 miles    
Events      
T = Trace of Precipitation, MM = Missing Value Source: NWS Daily Summary

Daily Weather History Graph

Daily Weather History Graph

Search for Another Location

Airport or City:

Trip Planner

Search our weather history database for the weather conditions in past years. The results will help you decide how hot, cold, wet, or windy it might be!

Date:

Astronomy

Nov. 02, 2013 Rise Set
Actual Time 7:08 AM PDT 5:36 PM PDT
Civil Twilight 6:40 AM PDT 6:04 PM PDT
Nautical Twilight 6:09 AM PDT 6:36 PM PDT
Astronomical Twilight 5:37 AM PDT 7:07 PM PDT
Moon 6:10 AM PDT (11/2) 5:10 PM PDT (11/2)
Length of Visible Light 11h 23m
Length of Day
10h 27m
Waning Crescent, 1% of the Moon is Illuminated
Nov 2
Waning Crescent
Nov 3
New
Nov 9
First Quarter
Nov 17
Full
Nov 25
Last Quarter

Hourly Weather History & Observations

Time (PDT) Temp. Windchill Dew Point Humidity Pressure Visibility Wind Dir Wind Speed Gust Speed Precip Events Conditions
12:53 AM 26.1 °F 16.8 °F 23.0 °F 88% 30.19 in 10.0 mi SSE 9.2 mph - N/A   Clear
1:53 AM 26.1 °F 16.8 °F 21.9 °F 84% 30.17 in 10.0 mi SSE 9.2 mph - N/A   Clear
2:53 AM 25.0 °F 18.1 °F 21.9 °F 88% 30.14 in 10.0 mi SE 5.8 mph - N/A   Clear
3:53 AM 26.1 °F 16.2 °F 21.0 °F 81% 30.11 in 10.0 mi South 10.4 mph - N/A   Clear
4:53 AM 25.0 °F 18.1 °F 21.0 °F 85% 30.11 in 10.0 mi East 5.8 mph - N/A   Clear
5:53 AM 23.0 °F 13.9 °F 19.9 °F 88% 30.17 in 10.0 mi SSE 8.1 mph - N/A   Clear
6:53 AM 19.9 °F 13.4 °F 17.1 °F 89% 30.19 in 10.0 mi South 4.6 mph - N/A   Clear
7:53 AM 30.0 °F 24.1 °F 21.9 °F 72% 30.15 in 10.0 mi ESE 5.8 mph - N/A   Clear
8:53 AM 41.0 °F - 24.1 °F 51% 30.12 in 10.0 mi Calm Calm - N/A   Clear
9:53 AM 48.9 °F - 23.0 °F 36% 30.07 in 10.0 mi Calm Calm - N/A   Clear
10:53 AM 55.0 °F - 15.1 °F 21% 30.03 in 10.0 mi South 4.6 mph - N/A   Clear
11:53 AM 61.0 °F - 14.0 °F 16% 29.97 in 10.0 mi Calm Calm - N/A   Clear
12:53 PM 64.0 °F - 6.1 °F 10% 29.93 in 10.0 mi SW 12.7 mph 17.3 mph N/A   Clear
1:53 PM 64.0 °F - 7.0 °F 11% 29.88 in 10.0 mi SW 11.5 mph 17.3 mph N/A   Clear
2:53 PM 64.0 °F - 8.1 °F 11% 29.84 in 10.0 mi SSW 10.4 mph - N/A   Clear
3:53 PM 61.0 °F - 10.0 °F 13% 29.84 in 10.0 mi SSW 15.0 mph - N/A   Clear
4:53 PM 55.9 °F - 17.1 °F 22% 29.85 in 10.0 mi SSW 18.4 mph 25.3 mph N/A   Clear
5:53 PM 51.1 °F - 16.0 °F 25% 29.87 in 10.0 mi South 18.4 mph - N/A   Clear
6:53 PM 48.0 °F - 18.0 °F 30% 29.89 in 10.0 mi South 15.0 mph - N/A   Clear
7:53 PM 46.9 °F - 19.0 °F 33% 29.83 in 10.0 mi South 13.8 mph - N/A   Clear
8:53 PM 46.9 °F - 19.9 °F 34% 29.78 in 10.0 mi South 13.8 mph - N/A   Clear
9:53 PM 45.0 °F 39.3 °F 19.9 °F 37% 29.75 in 10.0 mi SSW 11.5 mph - N/A   Clear
10:53 PM 45.0 °F 40.1 °F 19.9 °F 37% 29.73 in 10.0 mi SSW 9.2 mph - N/A   Clear
11:53 PM 42.1 °F 35.2 °F 21.0 °F 43% 29.69 in 10.0 mi SW 12.7 mph - N/A   Clear